Preview of NWS' New Version of Forecast
This preview is not operational and should not be used for support decisions.

Regional Weather Roundup (RWR)

Issued by National Weather Service (NWS)

                            
000
ASUS46 KSEW 231110
RWRWA 

WASHINGTON REGIONAL WEATHER ROUNDUP
NATIONAL WEATHER SERVICE SEATTLE WA
400 AM PDT SAT MAR 23 2019

NOTE:"FAIR" INDICATES FEW OR NO CLOUDS BELOW 12,000 FEET WITH NO 
SIGNIFICANT WEATHER AND/OR OBSTRUCTIONS TO VISIBILITY.

WAZ507-509-555>559-231200-
SEATTLE, TACOMA, EVERETT, AND VICINITY
  
CITY           SKY/WX    TMP DP  RH WIND       PRES   REMARKS
EVERETT        MOCLDY    46  43  89 S12       30.11S                  
BOEING FIELD   MOCLDY    47  43  86 SE5       30.12S                  
RENTON         MOCLDY    48  43  82 S3        30.13R                  
SEATAC AIRPORT CLOUDY    47  42  83 SE5       30.12R                  
JBLM-MCCHORD   NOT AVBL                                               
PUYALLUP       DRZL/FOG  41  41 100 CALM      30.12S VSB 1/2          
BREMERTON      CLOUDY    44  44 100 CALM      30.12S                  
JBLM-FT LEWIS  MOCLDY    39  39 100 SE5       30.11S                  
TACOMA NARROWS MOCLDY    44  42  93 CALM      30.12R                  
$$
 
WAZ001-503-506-510-514-515-231200-
NORTH INTERIOR
  
CITY           SKY/WX    TMP DP  RH WIND       PRES   REMARKS
BELLINGHAM     CLOUDY    49  44  83 S5        30.11R                  
FRIDAY HARBOR  CLOUDY    46  44  93 CALM      30.11S                  
EASTSOUND      LGT RAIN  48  46  93 S8        30.10R                  
PORT ANGELES   CLOUDY    44  41  89 SW3       30.11R                  
EDIZ HOOK      CLOUDY    48  43  83 CALM      30.11S                  
PORT TOWNSEND  CLOUDY    48  45  87 CALM      30.10S                  
NAS WHIDBEY    MOCLDY    51  42  71 CALM      30.15R                  
ARLINGTON      CLOUDY    48  45  89 S7        30.12S                  
BURLINGTON     CLOUDY    48  43  81 CALM      30.12R                  
$$
 
WAZ020-022-039-040-504-511-512-231200-
SOUTHWEST INTERIOR
  
CITY           SKY/WX    TMP DP  RH WIND       PRES   REMARKS
SHELTON        FOG       39  37  92 CALM      30.10R VSB 1/4          
OLYMPIA        MOCLDY    35  34  96 CALM      30.12S FOG              
CHEHALIS       FOG       39  39 100 CALM      30.12F VSB 3/4          
KELSO          MOCLDY    43  43 100 W3        30.13F                  
VANCOUVER        N/A    N/A N/A N/A MISG      30.13R                  
SCAPPOOSE, OR  MOCLDY    41  38  89 CALM      30.12S                  
PORTLAND, OR   CLOUDY    47  45  93 E7        30.13S                  
$$
 
WAZ021-516-517-231200-
WASHINGTON COAST
  
CITY           SKY/WX    TMP DP  RH WIND       PRES   REMARKS
FORKS          CLOUDY    43  42  97 E3        30.09S                  
HOQUIAM        PTCLDY    45  44  97 NE7       30.11R                  
ASTORIA, OR    CLOUDY    41  41 100 CALM      30.10S                  
$$
 
WAZ019-023-024-040-567>569-231200-
CASCADE MOUNTAINS AND COLUMBIA GORGE
  
CITY           SKY/WX    TMP DP  RH WIND       PRES   REMARKS
STAMPEDE PASS  FOG       35  33  92 CALM      30.04F VSB 1/4          
TROUTDALE, OR  MOCLDY    46  44  93 E3        30.13S                  
HOOD RIVER, OR CLOUDY    41  37  87 NW3       30.11R                  
THE DALLES, OR CLOUDY    46  40  79 NW6       30.09F                  
$$

WAZ026-027-041>044-520-521-231200-
EAST SLOPES
  
CITY           SKY/WX    TMP DP  RH WIND       PRES   REMARKS
OMAK           CLOUDY    40  35  83 NW3       30.01R                  
WENATCHEE      CLOUDY    48  35  60 NW8       30.00R                  
ELLENSBURG     CLOUDY    46  36  68 NW15      30.02S                  
YAKIMA         CLOUDY    41  34  76 CALM      30.04R                  
SUNNYSIDE ARPT PTSUNNY   42  38  88 CALM      30.05                   
YAKIMA TC      FAIR      42  34  74 SE5       30.01                   
$$

WAZ028-034-035-231200-
COLUMBIA BASIN
  
CITY           SKY/WX    TMP DP  RH WIND       PRES   REMARKS
EPHRATA        CLOUDY    43  40  89 N9        29.99S                  
MOSES LAKE     CLOUDY    48  37  65 S8        30.00S                  
PASCO          CLOUDY    51  40  65 S13       30.05F                  
RICHLAND ARPT  CLOUDY    51  40  67 S6        30.06                   
HERMISTON, OR  CLOUDY    51  41  68 SW10      30.06S                  
$$

WAZ036>038-231200-
NORTHEAST WASHINGTON
  
CITY           SKY/WX    TMP DP  RH WIND       PRES   REMARKS
SPOKANE GEIGER CLOUDY    41  35  79 S7        30.03R                  
SPOKANE FELTS  CLOUDY    47  37  68 VRB3      30.05R                  
FAIRCHILD AFB  MOCLDY    40  40 100 S10       30.02R                  
COEURDALENE,ID CLOUDY    40  35  83 SE6       30.05S                  
DEER PARK      CLOUDY    36  33  89 SE5       30.04R                  
$$

WAZ029>033-231200-
SOUTHEAST WASHINGTON
  
CITY           SKY/WX    TMP DP  RH WIND       PRES   REMARKS
PULLMAN        CLOUDY    43  39  86 CALM      30.07S                  
LEWISTON, ID   CLOUDY    46  40  79 CALM      30.07S                  
WALLA WALLA    CLOUDY    50  40  68 S3        30.07R                  
PENDLETON, OR  CLOUDY    48  40  73 W7        30.06S                  
$$